DateTimeUTC,F1_A11,F1_S11,BsB_S11,BsG_S11,BsR_S11,BbsB_S11,BbsG_S11,BbsR_S11,BaB_A11,BaG_A11,BaR_A11,Tu_S11,T_S11,Uu_S11,U_S11,P_S11,T1_A11
2021-08-03T07:00:00Z,00000200,20000000,,,,,,,0000.12,0000.06,-000.21,18.0,24.9,02.9,01.9,0672.1,30.9
2021-08-03T07:01:00Z,00000200,20000000,,,,,,,0000.12,-000.07,0000.11,18.0,24.9,02.9,01.9,0672.1,30.9
2021-08-03T07:02:00Z,00000200,20000000,,,,,,,-000.21,-000.13,-000.23,18.0,24.9,02.9,01.9,0672.1,30.9
2021-08-03T07:03:00Z,00000200,60000000,,,,,,,0000.35,0000.58,0000.66,18.0,24.9,02.9,01.9,0672.1,30.9
2021-08-03T07:04:00Z,00000200,40000000,0004.86,0003.30,0001.93,0000.43,0000.30,0000.68,0001.35,0001.44,0000.68,18.1,24.7,03.0,02.0,0673.0,30.9
2021-08-03T07:05:00Z,00000200,00000000,0004.51,0003.57,0002.03,0000.60,0000.09,0000.40,0001.08,0000.55,0000.88,18.1,24.7,03.0,02.0,0673.0,30.9
2021-08-03T07:06:00Z,00000200,00000000,0005.26,0003.82,0001.95,0000.88,0000.43,0000.54,0001.29,0001.16,0000.96,18.2,24.6,03.1,02.1,0673.1,30.9
2021-08-03T07:07:00Z,00000200,00000000,0004.93,0004.00,0002.16,0000.47,0000.45,0000.37,0000.63,0001.03,0000.37,18.2,24.7,03.1,02.1,0673.1,30.9
2021-08-03T07:08:00Z,00000200,00000000,0006.03,0003.62,0002.18,0000.10,0000.49,0000.68,0001.46,0000.73,0000.79,18.2,24.6,03.1,02.1,0673.1,30.9
2021-08-03T07:09:00Z,00000200,00000000,0005.19,0003.34,0001.65,0000.84,0000.64,0000.64,0001.15,0001.28,0000.89,18.2,24.6,03.2,02.1,0673.1,30.9
2021-08-03T07:10:00Z,00000200,00000000,0005.50,0003.59,0002.16,0000.61,0000.71,0000.27,0000.80,0000.94,0000.40,18.2,24.6,03.1,02.1,0673.0,30.9
2021-08-03T07:11:00Z,00000200,00000000,0005.38,0003.73,0001.85,0000.91,0000.51,0000.29,0000.76,0000.67,0000.81,18.2,24.6,03.2,02.2,0673.0,30.9
2021-08-03T07:12:00Z,00000200,00000000,0006.17,0003.79,0001.84,0000.45,0000.60,0000.58,0001.21,0001.06,0001.15,18.2,24.6,03.2,02.2,0673.0,30.9
2021-08-03T07:13:00Z,00000200,00000000,0005.61,0003.88,0002.33,0000.69,0000.24,0000.69,0001.03,0000.90,0000.25,18.1,24.6,03.2,02.2,0673.0,30.9
2021-08-03T07:14:00Z,00000200,00000000,0005.91,0003.71,0002.30,0000.79,0000.54,0000.25,0001.04,0000.98,0000.66,18.1,24.6,03.2,02.2,0673.0,30.9
2021-08-03T07:15:00Z,00000200,00000000,0004.67,0003.42,0001.96,0000.43,0000.82,0000.16,0001.01,0000.95,0001.15,18.1,24.6,03.2,02.2,0673.0,30.9
2021-08-03T07:16:00Z,00000200,00000000,0004.38,0003.51,0001.63,0000.23,0000.56,0000.58,0001.08,0000.79,0000.55,18.2,24.6,03.2,02.1,0673.0,30.9
2021-08-03T07:17:00Z,00000200,00000000,0004.54,0003.63,0002.15,0001.53,0000.59,0000.56,0001.10,0001.11,0000.81,18.1,24.6,03.2,02.2,0673.0,30.9
2021-08-03T07:18:00Z,00000200,00000000,0005.36,0003.46,0001.70,0000.80,0000.16,0000.39,0000.55,0000.37,0000.49,18.1,24.6,03.3,02.2,0673.0,30.9
2021-08-03T07:19:00Z,00000200,00000000,0004.83,0003.21,0001.82,0000.40,0000.54,0000.69,0001.27,0001.21,0000.56,18.1,24.6,03.2,02.2,0673.0,30.9
2021-08-03T07:20:00Z,00000200,00000000,0004.85,0003.22,0001.83,0000.12,0000.41,0000.27,0000.98,0000.60,0000.62,18.1,24.5,03.2,02.2,0673.0,31.0
2021-08-03T07:21:00Z,00000200,00000000,0005.25,0003.82,0001.81,0000.73,0000.67,0000.25,0000.85,0001.08,0000.52,18.1,24.5,03.2,02.2,0673.0,30.9
2021-08-03T07:22:00Z,00000200,00000000,0005.65,0003.46,0002.32,0000.64,0000.46,0000.22,0001.24,0001.22,0001.18,18.1,24.5,03.2,02.2,0673.0,30.9
2021-08-03T07:23:00Z,00000200,00000000,0006.47,0004.63,0002.85,0000.85,0000.86,0000.43,0001.15,0001.00,0000.65,18.1,24.5,03.3,02.3,0673.0,30.9
2021-08-03T07:24:00Z,00000200,00000000,0007.90,0006.20,0003.47,0000.99,0000.85,0000.60,0002.03,0001.58,0001.39,18.1,24.5,03.4,02.3,0673.0,30.9
2021-08-03T07:25:00Z,00000200,00000000,0009.47,0006.49,0003.94,0001.38,0000.64,0000.48,0001.74,0001.87,0001.19,18.1,24.5,03.4,02.3,0673.1,30.9
2021-08-03T07:26:00Z,00000200,00000000,0008.59,0006.71,0003.81,0001.26,0000.75,0000.83,0001.86,0001.73,0001.44,18.1,24.5,03.4,02.3,0673.1,30.9
2021-08-03T07:27:00Z,00000200,00000000,0008.56,0006.95,0004.08,0001.19,0000.62,0000.56,0001.87,0001.57,0001.30,18.1,24.5,03.4,02.3,0673.0,30.9
2021-08-03T07:28:00Z,00000200,00000000,0009.85,0006.74,0003.72,0001.52,0000.90,0000.71,0001.60,0001.55,0001.04,18.1,24.5,03.4,02.3,0673.0,30.9
2021-08-03T07:29:00Z,00000200,00000000,0009.22,0006.39,0003.69,0001.34,0001.01,0000.90,0001.99,0001.51,0001.44,18.2,24.5,03.4,02.3,0673.0,30.9
2021-08-03T07:30:00Z,00000200,00000000,0009.42,0006.70,0003.64,0001.15,0000.83,0000.52,0001.74,0001.43,0000.81,18.2,24.5,03.4,02.3,0673.0,30.9
2021-08-03T07:31:00Z,00000200,00000000,0008.27,0006.43,0003.90,0001.06,0001.10,0000.53,0001.52,0001.66,0001.42,18.2,24.5,03.4,02.3,0673.0,30.9
2021-08-03T07:32:00Z,00000200,00000000,0009.42,0006.48,0003.74,0000.51,0000.85,0000.56,0002.00,0001.76,0001.00,18.2,24.5,03.4,02.3,0673.1,30.9
2021-08-03T07:33:00Z,00000200,00000000,0009.52,0006.41,0004.22,0000.66,0001.05,0000.24,0002.16,0001.96,0001.64,18.1,24.5,03.4,02.3,0673.1,30.9
2021-08-03T07:34:00Z,00000200,00000000,0008.87,0006.36,0003.81,0000.52,0000.96,0000.65,0001.47,0001.73,0001.24,18.2,24.5,03.3,02.2,0673.1,31.0
2021-08-03T07:35:00Z,00000200,00000000,0008.61,0006.54,0003.69,0000.92,0000.94,0000.56,0001.77,0001.49,0001.20,18.2,24.5,03.4,02.3,0673.1,30.9
2021-08-03T07:36:00Z,00000200,00000000,0008.55,0006.43,0004.03,0001.34,0000.99,0000.92,0001.92,0001.71,0001.12,18.2,24.5,03.3,02.3,0673.1,31.0
2021-08-03T07:37:00Z,00000200,00000000,0009.22,0005.59,0003.75,0000.37,0001.04,0000.77,0001.69,0001.32,0001.46,18.2,24.5,03.4,02.3,0673.1,30.9
2021-08-03T07:38:00Z,00000200,00000000,0007.77,0006.68,0003.40,0000.94,0000.96,0000.48,0001.33,0001.37,0000.84,18.2,24.5,03.4,02.3,0673.1,30.9
2021-08-03T07:39:00Z,00000200,00000000,0008.61,0005.92,0003.79,0001.49,0000.67,0000.86,0001.99,0001.79,0001.23,18.1,24.5,03.4,02.3,0673.1,31.0
2021-08-03T07:40:00Z,00000200,00000000,0009.42,0006.49,0003.99,0000.98,0000.90,0000.81,0001.95,0001.51,0001.59,18.1,24.5,03.4,02.3,0673.0,30.9
2021-08-03T07:41:00Z,00000200,00000000,0009.77,0007.41,0004.25,0001.56,0000.87,0000.78,0002.08,0001.89,0001.52,18.1,24.5,03.4,02.3,0673.0,30.9
2021-08-03T07:42:00Z,00000200,00000000,0010.45,0007.70,0004.73,0001.18,0000.79,0000.88,0001.89,0001.96,0001.23,18.1,24.5,03.3,02.3,0673.0,30.9
2021-08-03T07:43:00Z,00000200,00000000,0011.19,0007.97,0004.70,0000.59,0000.87,0000.43,0001.95,0001.95,0001.22,18.2,24.5,03.4,02.3,0673.0,30.9
2021-08-03T07:44:00Z,00000200,00000000,0010.81,0008.14,0004.76,0001.39,0000.55,0000.58,0002.01,0001.80,0001.79,18.1,24.5,03.4,02.3,0673.0,30.9
2021-08-03T07:45:00Z,00000200,00000000,0010.64,0008.23,0004.98,0001.57,0001.11,0000.56,0002.63,0002.21,0001.17,18.2,24.5,03.4,02.3,0673.0,30.9
2021-08-03T07:46:00Z,00000200,00000000,0011.58,0008.60,0005.34,0001.59,0001.08,0000.76,0002.12,0001.69,0001.67,18.2,24.5,03.4,02.3,0673.0,30.9
2021-08-03T07:47:00Z,00000200,00000000,0011.72,0008.78,0005.37,0001.29,0001.10,0000.78,0002.31,0002.15,0001.49,18.2,24.5,03.5,02.4,0673.0,30.9
2021-08-03T07:48:00Z,00000200,00000000,0012.19,0009.15,0005.83,0001.73,0001.05,0000.95,0002.05,0002.15,0001.75,18.2,24.5,03.4,02.3,0673.0,30.9
2021-08-03T07:49:00Z,00000200,00000000,0011.52,0008.92,0005.20,0001.43,0000.78,0001.09,0002.33,0002.04,0001.39,18.2,24.5,03.4,02.3,0673.0,30.9
2021-08-03T07:50:00Z,00000200,00000000,0011.99,0008.74,0005.67,0001.95,0001.14,0001.20,0002.46,0002.19,0001.90,18.1,24.5,03.4,02.3,0673.0,30.9
2021-08-03T07:51:00Z,00000200,00000000,0012.24,0008.44,0005.41,0001.53,0001.11,0000.96,0002.13,0001.68,0001.27,18.1,24.5,03.4,02.3,0673.0,30.9
2021-08-03T07:52:00Z,00000200,00000000,0012.44,0008.62,0005.03,0001.42,0001.42,0000.59,0002.32,0002.18,0001.76,18.2,24.5,03.4,02.3,0673.0,30.9
2021-08-03T07:53:00Z,00000200,00000000,0011.82,0008.43,0005.52,0001.08,0001.16,0000.66,0002.21,0002.39,0001.45,18.2,24.5,03.4,02.3,0673.0,30.9
2021-08-03T07:54:00Z,00000200,00000000,0011.48,0008.88,0005.42,0001.23,0001.32,0000.76,0002.34,0001.83,0001.67,18.1,24.5,03.4,02.3,0673.0,30.9
2021-08-03T07:55:00Z,00000200,00000000,0010.12,0008.33,0005.50,0001.54,0001.23,0001.23,0002.25,0002.10,0001.61,18.2,24.5,03.4,02.3,0673.0,30.9
2021-08-03T07:56:00Z,00000200,00000000,0011.82,0008.78,0005.27,0000.96,0001.09,0000.73,0002.15,0002.02,0001.50,18.2,24.5,03.3,02.3,0673.0,30.9
2021-08-03T07:57:00Z,00000200,40000000,,,,,,,0000.89,0000.84,0000.37,18.2,24.5,03.5,02.4,0673.0,30.9
2021-08-03T07:58:00Z,00000200,60000000,,,,,,,-000.39,-000.14,0000.09,17.9,24.6,03.2,02.1,0672.0,30.9
2021-08-03T07:59:00Z,00000200,20000000,,,,,,,0000.12,-000.15,-000.23,17.9,24.7,03.2,02.1,0672.0,30.9
